Flag for Switzerland Weather past 2 weeks in Bellinzona, Ticino, Switzerland

Now
49 °F

Cool.


Feels Like: 49 °F
Forecast: 46 / 69 °F
Wind: No wind

Location: Locarno-Magadino

Current Time: Sep 24, 2014 at 1:02:10 AM

Latest Report: Sep 24, 2014 at 12:00 AM


Visibility: N/A

Pressure: 30.12 "Hg

Humidity: 95%

Dew point: 48 °F

Location of BellinzonaLocation

Historic Weather in Bellinzona — Graph

°F

Bellinzona temperature yesterday

Maximum temperature yesterday: 70 °F (at 4:00 PM)
Minimum temperature yesterday: 50 °F (at 11:00 PM)
Average temperature yesterday: 60 °F

Past Weeks' High & Low Weather Summary

 TemperatureHumidityPressure
High79 °F (Sep 22, 3:00 PM)100% (Sep 10, 4:00 AM)30.14 "Hg (Sep 10, 4:00 AM)
Low48 °F (Sep 13, 7:00 AM)15% (Sep 22, 5:00 PM)29.75 "Hg (Sep 11, 5:00 PM)
Average63 °F79%29.98 "Hg
* Reported Sep 8 11:00 PM — Sep 23 11:00 PM, Bellinzona, Weather by CustomWeather, © 2014

Note: Actual official high and low records may vary slightly from our data, if they occured in-between our weather recording intervals... More about our weather records

Advertising

Bellinzona weather history for previous 24 hours

 ConditionsComfort  
Time TempWeatherWind HumidityBarometerVisibility
11:00 PM
Sep 23
50 °FCool.1 mph97%30.11 "HgN/A
10:00 PM51 °FCool.1 mph91%30.10 "HgN/A
9:00 PM53 °FCool.2 mph88%30.08 "HgN/A
8:00 PM61 °FRefreshingly cool.2 mph60%30.04 "HgN/A
7:00 PM63 °FMild.3 mph58%30.02 "HgN/A
6:00 PM68 °FMild.6 mph50%30.00 "HgN/A
5:00 PM69 °FMild.7 mph42%30.00 "HgN/A
4:00 PM70 °FMild.9 mph40%30.00 "HgN/A
3:00 PM70 °FMild.7 mph38%30.01 "HgN/A
2:00 PM68 °FMild.8 mph37%30.02 "HgN/A
1:00 PM67 °FMild.9 mph37%30.04 "HgN/A
12:00 PM66 °FMild.9 mph38%30.03 "HgN/A
11:00 AM62 °FRefreshingly cool.10 mph39%30.04 "HgN/A
10:00 AM60 °FRefreshingly cool.3 mph42%30.03 "HgN/A
9:00 AM56 °FRefreshingly cool.6 mph49%30.03 "HgN/A
8:00 AM53 °FCool.7 mph52%30.05 "HgN/A
7:00 AM53 °FCool.5 mph49%30.03 "HgN/A
6:00 AM56 °FRefreshingly cool.7 mph43%30.01 "HgN/A
5:00 AM57 °FRefreshingly cool.10 mph41%29.99 "HgN/A
4:00 AM57 °FRefreshingly cool.10 mph42%29.98 "HgN/A
3:00 AM59 °FRefreshingly cool.9 mph36%30.01 "HgN/A
2:00 AM56 °FRefreshingly cool.3 mph47%30.01 "HgN/A
1:00 AM62 °FRefreshingly cool.10 mph33%29.96 "HgN/A
Weather by CustomWeather, © 2014

See weather overviewHow to use our weather pages